Wetbulb
57.05 57.18 57.25 57.35 57.42 57.35 56.91 57.02 57.44 57.70 58.11 58.96 59.27 59.00 59.08 59.23 58.76 56.29 52.33 56.34 58.64 65.94 64.69 62.66 58.36 57.33 54.87 52.13 54.38 50.44 43.76 40.53 42.55 39.54 41.56 41.93 41.19 44.94 48.27 47.72 48.56 48.61 48.20 49.04 49.63
55.65 55.97 56.19 56.44 56.32 56.61 56.27 56.30 56.52 57.46 57.99 58.62 58.64 58.49 58.69 58.95 55.27 52.69 59.76 64.87 65.97 67.64 56.99 55.81 53.29 53.88 49.86 49.55 50.79 48.12 42.29 44.12 46.92 43.49 42.93 42.99 43.28 45.85 46.83 46.95 45.96 46.72 49.15 49.97 50.09
55.33 55.18 55.34 55.38 55.63 56.03 55.62 55.57 55.87 56.48 57.52 57.76 57.85 57.80 58.37 57.89 51.83 52.47 65.58 65.16 66.75 67.25 57.62 56.21 54.18 52.89 47.19 47.82 48.52 47.02 45.39 47.48 47.94 46.26 45.45 44.11 42.93 46.43 45.92 43.85 45.94 45.05 47.33 48.23 48.37
55.24 55.03 54.87 54.94 54.96 55.06 54.99 55.16 55.48 56.03 56.21 56.31 57.04 57.27 58.37 55.04 41.68 53.59 70.12 69.20 67.61 63.07 56.31 53.54 51.09 47.25 45.14 45.16 48.43 45.11 49.25 48.69 48.64 48.66 44.80 44.37 46.22 46.92 46.31 46.57 49.59 48.27 48.85 47.93 47.61
54.80 54.74 54.68 54.62 54.54 54.39 55.03 54.72 55.02 55.18 55.11 55.44 56.29 57.27 55.10 47.89 49.27 57.93 69.25 68.41 63.25 58.43 55.43 53.19 49.93 47.51 44.74 46.64 48.05 46.53 47.64 47.67 47.37 45.30 45.90 46.64 45.55 45.98 46.70 49.42 49.86 48.64 48.62 47.66 47.24
53.91 53.95 54.05 54.07 53.91 53.77 54.42 54.52 54.64 54.68 54.84 55.06 56.20 57.19 49.61 42.85 53.45 55.60 59.28 62.22 60.64 56.58 54.94 54.01 52.17 51.74 47.82 47.84 47.57 49.18 47.11 46.70 44.92 43.82 44.71 45.11 44.74 46.17 47.51 49.50 48.07 47.78 46.93 47.34 48.13
53.51 53.39 53.60 53.39 53.11 53.01 53.69 53.81 53.41 53.78 54.39 55.44 56.16 55.74 49.89 44.95 52.05 57.74 60.52 57.52 58.59 57.57 54.45 54.85 54.25 52.34 50.14 47.25 48.61 46.92 44.51 46.24 45.93 44.53 44.27 45.65 43.07 44.44 47.99 48.26 46.42 46.39 46.66 47.35 47.99
53.57 53.59 53.08 52.88 52.84 52.70 52.95 53.43 53.18 53.80 55.22 56.22 57.36 54.37 44.68 52.05 53.51 51.06 51.66 54.03 57.11 58.32 56.15 55.78 54.67 52.19 50.81 50.51 48.36 44.54 42.42 38.98 44.22 45.60 45.94 44.66 39.69 45.45 47.89 46.85 45.25 45.92 46.35 46.93 47.58
53.55 53.35 53.16 52.85 52.65 52.67 52.71 52.67 53.11 54.22 58.60 58.60 53.79 49.54 43.82 54.87 53.54 54.11 53.36 52.26 55.56 56.15 56.10 57.40 52.45 49.40 47.92 44.89 42.37 42.69 39.53 40.25 42.91 45.48 44.38 42.90 41.44 45.23 47.21 46.87 45.04 44.86 45.76 46.57 46.74
53.56 53.18 53.06 52.56 52.40 52.50 52.34 51.94 51.80 53.58 58.38 58.05 56.53 45.02 45.19 44.79 51.94 54.38 54.72 55.44 53.74 53.30 52.13 51.03 47.07 44.18 41.48 40.86 36.57 38.61 39.16 40.98 40.87 43.94 43.29 41.06 41.53 43.88 46.77 46.60 45.48 44.59 45.47 45.87 46.80
53.76 53.16 52.91 52.83 52.08 52.03 49.28 43.57 44.34 46.44 50.34 45.31 44.23 44.64 48.31 52.76 53.69 52.94 56.29 55.07 53.74 50.25 45.06 46.56 42.90 39.77 41.87 43.57 44.54 43.42 41.32 40.93 43.75 45.65 42.83 41.90 42.07 45.11 45.29 44.62 43.89 43.55 43.90 44.76 46.06
53.69 53.71 52.93 52.66 51.83 51.86 45.61 40.10 43.05 42.62 39.63 47.87 48.11 49.38 51.98 51.82 48.00 50.05 55.69 50.37 48.81 44.58 46.11 43.59 41.14 44.61 45.98 45.14 43.62 41.88 39.85 39.37 42.37 44.34 42.14 42.02 41.45 42.95 44.47 45.01 45.24 43.79 43.48 44.34 45.40
53.37 53.20 52.62 52.31 51.97 44.59 42.17 44.20 45.74 43.74 39.11 45.44 48.26 48.14 49.02 50.85 47.31 48.10 52.98 50.70 47.27 44.28 43.74 41.87 44.12 47.59 46.02 44.11 42.59 41.32 39.30 39.47 40.35 42.31 41.68 39.58 38.11 40.35 43.57 44.29 45.49 44.24 44.95 45.06 45.38
53.39 53.02 52.61 52.04 43.11 41.95 39.85 45.07 44.90 43.26 36.51 40.62 45.01 48.03 49.03 49.91 45.95 51.77 54.23 51.62 47.30 45.05 44.41 43.48 46.67 46.33 43.72 43.39 43.71 38.55 44.26 43.53 42.07 38.82 33.77 39.95 30.15 38.12 41.08 42.32 44.47 43.05 42.83 44.41 44.92
53.70 52.94 52.45 50.69 41.97 40.39 42.28 45.15 44.90 43.07 23.20 41.28 44.88 51.40 48.77 46.71 46.96 48.17 52.83 49.94 45.80 46.11 45.18 44.32 43.66 43.42 42.67 44.17 44.82 42.53 45.29 42.92 41.83 37.51 34.31 36.19 31.20 36.67 40.62 41.58 42.67 43.28 43.03 43.69 44.70
53.23 52.96 52.39 44.83 41.62 43.50 45.40 44.63 43.04 35.52 26.65 38.89 45.24 44.45 43.57 45.68 46.04 47.40 48.79 51.38 50.14 45.73 44.70 46.10 47.65 46.49 45.99 47.00 46.41 46.81 42.15 39.91 37.73 34.89 28.40 35.45 34.03 33.71 37.65 42.06 43.36 43.82 43.74 44.20 44.55
52.95 53.08 50.99 46.03 38.79 43.54 43.70 41.65 34.27 28.36 40.18 38.14 40.16 43.42 43.66 42.13 43.57 45.32 44.74 43.72 42.26 38.68 39.21 42.52 43.00 45.80 47.82 43.57 43.15 41.63 36.23 29.87 27.55 27.35 28.26 36.57 34.20 36.81 42.88 44.70 45.54 45.55 44.00 44.28 45.32
51.36 51.94 51.16 47.22 45.24 44.71 40.47 36.85 28.17 36.84 36.65 42.80 40.85 42.29 40.48 42.57 42.60 43.11 41.76 41.54 43.70 42.80 39.33 37.74 37.05 43.90 46.18 44.56 41.56 38.67 37.43 31.12 25.33 25.02 29.88 37.28 33.29 39.09 44.81 47.54 48.13 47.85 45.85 44.93 44.65
49.84 48.39 47.57 47.55 46.52 43.60 35.76 30.00 33.05 36.36 41.43 39.72 40.27 38.16 38.55 42.24 42.02 41.86 41.29 41.76 43.23 43.93 41.10 37.29 38.27 44.99 46.11 45.99 45.51 39.02 35.61 38.75 33.31 32.87 30.54 33.43 38.68 44.53 46.89 47.08 46.54 44.00 44.28 44.05 44.53
45.75 44.93 45.87 47.17 47.30 39.82 31.17 32.49 36.18 42.27 42.49 42.51 36.43 38.77 36.23 38.86 39.90 40.76 39.92 43.69 42.69 45.33 45.39 41.18 36.33 43.41 45.86 45.19 43.33 42.96 43.12 34.89 32.10 26.78 25.65 31.19 34.65 36.99 42.26 44.96 46.17 44.61 42.70 43.74 44.59
44.50 39.51 46.13 48.10 46.14 37.06 26.48 29.92 36.56 44.24 43.46 40.70 39.10 37.22 38.12 38.07 39.93 38.59 39.75 43.47 45.69 44.36 46.51 41.67 39.76 38.96 43.26 41.37 39.83 39.13 37.72 37.81 35.51 32.90 27.69 24.71 31.97 41.58 44.33 47.84 47.78 46.19 43.95 44.22 45.07
42.64 33.95 45.79 46.38 34.85 34.66 30.08 33.19 39.11 40.02 43.96 42.25 41.14 39.82 38.40 39.33 38.53 39.36 39.72 42.84 46.72 46.62 41.48 42.61 39.14 35.73 40.68 43.11 46.28 43.33 40.41 40.20 33.42 31.73 33.73 32.07 34.03 45.38 47.38 49.51 50.67 48.97 45.17 44.44 45.83
38.39 38.51 44.84 43.60 31.01 30.59 32.87 34.15 36.26 37.05 40.62 39.54 39.24 41.26 41.35 39.35 36.14 39.44 41.13 45.13 45.68 46.24 41.58 42.39 35.98 31.73 33.53 41.25 44.01 42.34 43.29 40.86 39.55 37.42 35.28 33.51 34.97 46.27 48.70 48.68 50.25 48.47 44.88 45.15 45.66
34.16 31.61 36.86 39.30 38.31 32.56 30.59 30.91 31.45 37.98 37.42 39.87 39.07 40.42 38.85 38.38 38.54 37.85 40.18 44.43 44.84 45.72 51.15 47.83 37.16 37.18 35.34 36.12 42.40 40.14 43.60 43.19 40.67 34.69 36.13 37.26 40.08 44.17 47.76 48.50 49.42 46.79 45.34 45.11 45.88
35.08 32.72 36.86 30.64 33.52 32.53 31.08 31.22 31.31 30.80 38.00 38.93 36.87 38.23 36.53 34.16 35.82 35.62 38.93 40.85 44.27 48.24 45.20 42.19 36.07 37.75 39.20 41.47 43.37 43.01 43.11 43.38 40.58 40.99 38.35 40.40 41.30 45.24 46.31 48.72 50.35 47.31 45.14 44.85 45.19
33.09 34.13 37.29 33.36 35.34 34.01 33.44 29.73 30.76 33.71 32.81 34.66 34.45 38.28 37.13 34.19 35.33 34.48 37.09 37.73 38.36 39.76 39.49 41.05 36.14 38.03 37.10 41.29 41.27 40.77 42.93 44.69 44.54 42.10 41.89 42.61 41.36 47.69 49.38 50.91 51.38 48.69 45.95 45.82 46.30
39.07 41.28 38.69 33.94 35.02 33.20 32.57 32.37 33.45 34.66 36.15 36.91 36.73 35.44 34.28 37.02 39.37 39.11 38.99 38.89 38.40 37.50 36.08 37.90 38.59 35.61 31.87 40.60 40.07 36.95 41.44 43.78 44.36 44.22 43.91 40.87 44.49 47.52 48.18 49.97 50.19 50.37 47.22 46.93 47.55
MSLP
1018.20 1018.17 1016.75 1016.48 1016.06 1016.35 1016.53 1016.30 1015.95 1015.29 1014.62 1014.24 1013.96 1013.63 1013.05 1012.70 1012.05 1012.13 1011.15 1009.73 1009.60 1009.56 1009.97 1010.89 1010.81 1010.89 1011.17 1011.66 1012.17 1012.96 1013.94 1014.55 1014.46 1014.17 1012.98 1012.36 1012.52 1012.43 1012.26 1012.60 1012.87 1013.20 1013.49 1013.88 1014.33
1018.46 1017.74 1017.23 1016.98 1016.67 1016.71 1016.59 1016.17 1015.74 1015.24 1014.62 1014.34 1013.93 1013.60 1013.13 1012.65 1012.27 1010.27 1008.68 1008.45 1008.86 1009.07 1009.83 1010.15 1010.52 1010.83 1011.51 1011.67 1012.06 1012.75 1013.59 1013.48 1012.85 1012.65 1012.30 1012.31 1012.27 1012.35 1012.72 1012.92 1013.30 1013.63 1013.93 1014.30 1014.63
1017.90 1017.62 1017.35 1017.33 1016.94 1016.31 1016.16 1015.74 1015.75 1015.36 1014.86 1014.28 1014.03 1013.68 1013.09 1012.64 1012.01 1008.38 1007.01 1007.28 1007.94 1008.62 1009.20 1009.46 1009.87 1010.45 1011.29 1011.54 1011.58 1012.00 1012.32 1011.83 1011.29 1011.23 1011.60 1011.93 1012.14 1012.31 1012.72 1013.34 1013.14 1013.34 1014.02 1014.56 1015.08
1018.15 1017.91 1017.86 1017.42 1016.46 1016.04 1015.80 1015.54 1015.60 1015.12 1014.49 1014.16 1014.10 1013.48 1013.16 1012.47 1010.90 1007.58 1007.06 1007.13 1007.60 1008.00 1009.21 1009.24 1009.78 1010.47 1011.02 1011.28 1010.93 1011.26 1010.84 1010.77 1010.34 1010.34 1011.02 1011.49 1011.62 1012.24 1012.57 1012.38 1012.20 1013.19 1013.91 1014.69 1015.40
1018.00 1017.75 1017.26 1016.53 1016.02 1015.75 1015.45 1015.36 1015.25 1014.76 1014.41 1014.06 1013.83 1013.52 1012.77 1011.98 1009.46 1007.15 1007.16 1007.37 1007.93 1008.48 1008.67 1009.11 1009.78 1010.18 1010.69 1010.54 1010.52 1010.62 1010.06 1010.09 1009.94 1010.03 1010.36 1010.82 1011.31 1012.04 1012.35 1012.35 1012.66 1013.57 1014.37 1014.92 1015.39
1017.95 1017.55 1017.19 1016.89 1016.53 1016.21 1015.81 1015.43 1015.09 1014.59 1014.07 1013.69 1013.31 1013.35 1012.74 1011.14 1007.59 1006.98 1007.14 1007.44 1007.66 1008.46 1008.34 1008.58 1008.96 1009.30 1010.07 1009.89 1009.93 1009.60 1009.64 1009.86 1010.09 1010.39 1010.55 1010.90 1011.47 1011.96 1011.92 1012.50 1013.22 1013.94 1014.59 1015.00 1015.41
1017.80 1017.60 1017.41 1017.09 1016.68 1016.16 1015.67 1015.25 1014.53 1013.95 1013.38 1013.08 1012.87 1013.21 1012.32 1008.13 1006.86 1006.71 1006.89 1007.05 1007.01 1007.34 1007.94 1007.72 1008.26 1009.04 1009.38 1009.53 1009.12 1009.49 1009.85 1009.94 1010.26 1010.51 1010.74 1010.92 1011.73 1011.76 1011.70 1012.57 1013.41 1014.16 1014.83 1015.28 1015.57
1017.30 1017.25 1017.09 1016.74 1016.40 1015.97 1015.34 1014.51 1013.92 1013.12 1012.34 1012.11 1012.26 1012.87 1010.69 1006.78 1006.32 1006.50 1006.50 1006.47 1006.71 1007.21 1007.16 1007.41 1008.35 1008.89 1009.03 1009.00 1009.34 1009.97 1010.40 1010.62 1010.36 1010.50 1010.67 1011.14 1011.11 1011.08 1011.46 1012.48 1013.38 1014.17 1014.83 1015.29 1015.53
1016.85 1016.73 1016.43 1016.07 1015.87 1015.43 1014.95 1013.91 1013.02 1012.44 1011.70 1011.67 1012.04 1012.07 1009.23 1006.41 1006.16 1005.26 1005.72 1006.17 1006.29 1006.75 1007.10 1007.36 1008.03 1008.92 1009.33 1009.69 1010.04 1010.71 1010.92 1011.05 1010.83 1010.66 1010.98 1011.36 1011.22 1010.96 1011.39 1012.27 1013.22 1014.12 1014.89 1015.33 1015.49
1016.81 1016.52 1016.21 1016.11 1015.84 1015.27 1014.19 1012.76 1011.91 1012.15 1011.97 1011.99 1011.22 1011.51 1007.82 1005.86 1005.09 1004.81 1004.87 1005.30 1005.96 1006.83 1007.40 1007.67 1008.58 1009.12 1009.86 1010.20 1010.45 1011.02 1011.14 1011.09 1011.11 1010.93 1011.17 1011.42 1011.25 1011.21 1011.68 1012.37 1012.98 1013.89 1014.69 1015.27 1015.46
1016.54 1016.36 1016.61 1016.44 1016.04 1015.56 1014.76 1013.33 1012.52 1012.51 1011.69 1009.99 1009.35 1008.09 1006.45 1005.50 1004.65 1004.72 1004.84 1005.28 1005.66 1006.52 1007.63 1007.88 1009.44 1009.31 1009.57 1010.01 1010.05 1010.71 1010.97 1011.20 1011.09 1010.88 1011.11 1011.16 1011.28 1010.77 1011.43 1012.27 1013.05 1013.73 1014.34 1014.89 1015.16
1015.92 1015.98 1016.35 1016.14 1015.70 1015.36 1015.09 1014.48 1013.98 1014.12 1011.93 1009.02 1008.35 1007.76 1006.14 1006.04 1005.93 1004.72 1004.50 1005.19 1005.99 1006.69 1007.65 1008.87 1008.50 1008.84 1009.42 1009.90 1010.24 1010.67 1011.00 1011.32 1011.04 1010.83 1011.47 1011.22 1011.33 1010.93 1011.35 1011.37 1012.01 1012.84 1013.97 1014.48 1014.91
1015.29 1015.53 1015.58 1015.37 1015.12 1014.89 1014.70 1014.10 1013.90 1013.56 1012.29 1007.92 1006.33 1005.52 1005.31 1005.52 1005.43 1004.57 1004.73 1004.61 1005.41 1006.74 1007.61 1008.17 1008.08 1008.58 1009.22 1009.55 1010.16 1010.37 1010.86 1011.12 1011.17 1011.14 1011.43 1011.60 1011.84 1011.30 1010.91 1011.29 1011.78 1012.57 1013.22 1014.12 1014.56
1014.90 1015.13 1015.36 1015.27 1015.28 1015.23 1014.68 1014.14 1013.68 1013.34 1011.60 1006.99 1005.03 1003.19 1003.69 1004.11 1004.40 1003.60 1003.70 1004.15 1005.12 1006.04 1007.26 1007.58 1007.62 1008.22 1008.77 1009.10 1009.52 1009.87 1010.17 1010.65 1011.35 1012.01 1012.23 1011.99 1012.09 1011.81 1011.15 1011.24 1011.51 1012.03 1012.69 1013.28 1014.12
1014.28 1014.50 1014.88 1015.12 1015.48 1015.22 1014.72 1013.76 1013.12 1012.89 1010.72 1004.89 1003.25 1001.54 1001.66 1002.42 1002.68 1002.85 1002.98 1003.71 1004.60 1005.50 1006.68 1006.71 1007.15 1007.63 1008.11 1008.44 1008.89 1009.49 1009.85 1010.64 1011.41 1012.33 1012.75 1012.61 1012.97 1011.65 1011.30 1011.16 1010.93 1010.96 1011.87 1012.65 1013.45
1013.58 1013.89 1014.34 1015.05 1015.47 1014.81 1014.17 1013.33 1012.98 1012.57 1007.65 1003.77 1002.01 1001.65 1002.32 1002.28 1002.17 1002.39 1002.77 1003.26 1004.04 1005.38 1005.88 1006.08 1006.17 1006.77 1007.00 1007.44 1008.12 1008.72 1010.06 1011.24 1012.33 1013.10 1013.56 1012.63 1012.63 1011.79 1010.88 1009.94 1009.73 1009.99 1011.05 1012.18 1013.01
1012.98 1013.25 1013.74 1014.14 1014.60 1014.41 1014.00 1013.41 1012.87 1009.42 1004.77 1002.87 1001.65 1001.57 1001.83 1002.18 1002.41 1002.10 1002.63 1003.36 1003.85 1005.13 1005.54 1006.15 1006.20 1006.02 1006.22 1007.27 1008.11 1009.02 1010.76 1012.30 1013.23 1013.77 1013.41 1012.55 1012.46 1010.71 1009.00 1008.48 1008.80 1009.25 1010.25 1011.22 1012.56
1012.40 1012.64 1012.73 1013.36 1013.89 1014.24 1014.16 1013.47 1010.34 1004.22 1003.41 1001.61 1001.11 1001.06 1001.48 1001.79 1002.17 1002.12 1002.51 1002.98 1003.39 1004.00 1005.12 1005.79 1006.08 1005.72 1005.82 1006.39 1007.46 1008.88 1010.29 1012.09 1013.09 1013.74 1013.21 1012.33 1011.41 1009.31 1008.13 1007.98 1008.04 1008.41 1009.62 1011.07 1012.18
1011.91 1012.13 1012.07 1012.68 1013.50 1014.20 1014.11 1012.08 1004.88 1002.85 1001.77 1001.69 1001.10 1001.13 1001.47 1001.43 1001.62 1002.31 1002.00 1002.02 1002.45 1003.04 1003.94 1005.14 1005.23 1005.05 1005.13 1005.59 1006.58 1008.43 1009.60 1010.09 1011.77 1012.84 1013.00 1011.98 1010.49 1008.71 1007.89 1008.18 1008.61 1009.17 1010.19 1011.05 1011.78
1011.37 1011.62 1011.20 1011.70 1012.95 1014.00 1013.47 1007.76 1004.26 1002.05 1001.12 1001.27 1000.94 1000.75 1001.14 1001.34 1001.63 1001.70 1001.76 1000.64 1001.59 1002.13 1002.64 1004.23 1005.31 1005.02 1004.94 1005.38 1006.13 1006.67 1008.03 1010.04 1011.55 1012.64 1012.89 1011.85 1010.65 1008.98 1008.24 1008.41 1008.67 1009.67 1010.32 1010.89 1011.64
1011.01 1010.62 1010.02 1010.95 1012.24 1013.04 1010.75 1005.68 1004.33 1002.38 1001.53 1001.06 1000.95 1001.14 1000.95 1001.05 1000.99 1001.16 1000.39 1000.08 1000.29 1001.76 1002.57 1003.98 1004.89 1005.57 1005.28 1005.32 1005.90 1007.18 1008.07 1009.57 1010.74 1011.84 1012.02 1011.79 1010.15 1008.36 1007.95 1007.59 1007.95 1008.83 1009.84 1010.45 1010.89
1010.16 1010.03 1009.88 1010.09 1011.06 1010.51 1008.60 1005.61 1004.31 1002.89 1002.11 1001.47 1001.01 1001.13 1001.10 1000.84 1000.72 1000.66 1000.08 999.59 999.46 1000.24 1002.25 1003.19 1004.37 1005.67 1005.26 1005.01 1004.99 1005.84 1006.89 1008.23 1010.14 1011.35 1011.38 1010.74 1008.82 1007.54 1007.49 1007.32 1007.04 1008.17 1009.71 1010.30 1011.12
1009.11 1009.47 1009.95 1009.57 1008.80 1008.80 1007.78 1006.80 1005.80 1004.09 1002.84 1002.43 1001.75 1001.26 1000.98 1001.00 1001.01 1000.30 999.89 999.34 999.42 1000.04 1001.24 1002.47 1003.74 1005.33 1005.76 1005.87 1005.64 1005.67 1006.66 1007.39 1008.43 1009.48 1010.18 1009.90 1008.01 1007.09 1007.13 1006.89 1006.78 1007.68 1008.99 1009.89 1010.86
1009.55 1009.59 1009.09 1009.26 1007.75 1008.08 1007.81 1007.03 1006.20 1004.94 1004.12 1003.37 1002.86 1002.25 1001.57 1001.24 1000.99 1000.83 1000.42 1000.02 999.75 1000.12 1000.73 1001.41 1002.77 1003.52 1003.73 1004.56 1005.19 1005.74 1006.23 1006.78 1007.36 1008.61 1008.74 1008.11 1007.38 1006.72 1006.50 1006.10 1006.76 1007.52 1008.43 1009.55 1010.38
1008.90 1008.51 1007.99 1008.17 1008.02 1007.66 1007.37 1006.54 1006.05 1005.57 1004.30 1003.76 1003.61 1003.05 1002.28 1001.90 1001.72 1001.76 1001.25 1000.67 1000.55 1000.54 1001.10 1001.80 1002.73 1003.39 1003.42 1003.75 1004.25 1004.42 1004.89 1005.55 1006.22 1006.32 1006.82 1006.63 1006.48 1005.74 1005.56 1005.78 1006.12 1006.69 1007.89 1009.04 1009.83
1008.56 1008.47 1008.29 1007.81 1007.63 1007.73 1007.37 1006.39 1005.98 1005.14 1004.89 1004.20 1004.19 1003.36 1002.92 1003.02 1002.95 1002.76 1002.06 1001.82 1001.73 1001.88 1002.13 1002.61 1003.09 1003.18 1003.56 1003.58 1003.52 1003.87 1003.30 1004.02 1004.41 1004.94 1005.28 1005.06 1005.07 1004.67 1004.80 1005.17 1005.66 1006.01 1007.20 1008.02 1008.54
1008.78 1008.23 1008.08 1007.52 1007.22 1007.22 1006.43 1005.95 1005.46 1005.58 1004.73 1004.71 1004.33 1004.30 1003.95 1003.61 1003.40 1003.11 1003.01 1002.83 1003.18 1003.31 1003.27 1003.44 1003.70 1004.03 1004.24 1003.84 1004.00 1002.20 1002.43 1003.06 1003.70 1003.91 1003.90 1004.17 1003.90 1004.03 1004.60 1004.73 1004.75 1005.42 1006.17 1006.74 1007.38
Wind_Speed
16 15 17 19 17 16 17 18 17 17 17 17 15 14 14 14 14 4 8 11 8 9 8 7 3 4 3 4 5 3 4 3 6 4 8 1 3 1 1 6 1 0 4 2 8
14 16 16 17 16 14 16 18 19 19 17 17 16 14 13 12 3 13 6 13 13 12 6 9 6 7 2 4 3 5 4 8 7 6 6 4 5 7 3 3 1 2 4 6 6
16 17 17 16 16 16 18 19 19 19 17 16 16 15 12 7 4 10 17 20 17 13 4 5 6 6 3 3 4 6 6 7 8 8 7 5 2 4 6 4 7 10 9 5 4
15 15 16 16 17 18 19 19 20 20 19 18 16 14 12 2 7 2 6 5 12 13 6 6 4 4 3 5 5 3 10 6 8 8 7 6 6 5 5 8 4 8 9 6 7
16 17 18 20 20 21 20 21 22 21 19 16 13 12 2 1 12 4 5 11 8 8 11 8 6 5 5 5 5 5 5 1 4 7 4 6 5 4 8 3 6 10 7 9 7
16 16 17 18 19 20 19 20 20 20 19 15 12 7 2 8 7 5 6 7 8 6 7 9 9 10 4 6 7 7 4 2 2 1 2 6 1 2 6 6 7 9 9 7 7
14 16 16 17 18 20 19 20 22 21 21 17 8 3 4 19 6 1 6 5 6 7 7 7 8 7 4 5 1 3 3 5 1 4 3 4 3 9 4 7 9 9 6 7 7
14 14 16 17 19 20 22 22 24 23 22 11 8 5 10 7 11 12 8 6 4 6 3 7 5 3 2 2 4 4 5 3 5 4 3 6 11 6 9 12 11 8 7 7 6
15 15 16 19 20 21 22 25 27 15 7 9 7 3 11 4 4 9 9 7 7 4 3 4 8 5 1 3 4 7 3 4 6 7 3 5 9 3 7 10 9 8 7 7 6
14 14 14 17 19 20 23 28 17 5 3 5 4 1 7 5 5 4 6 9 4 7 4 4 4 3 3 3 6 4 3 3 4 3 4 3 14 6 6 10 9 9 8 7 7
14 12 12 13 16 16 13 8 4 2 3 9 5 6 6 4 3 2 4 7 5 6 7 5 5 8 9 7 5 4 3 5 4 5 5 8 10 16 6 6 8 9 9 8 9
14 11 12 12 14 16 2 2 5 4 10 11 17 14 20 4 6 5 8 8 7 6 7 4 12 7 7 4 4 3 3 5 6 3 6 8 11 9 7 9 11 13 9 9 6
12 10 12 13 13 4 3 3 5 5 5 8 10 10 9 11 10 9 7 5 6 7 7 9 4 7 7 5 4 5 4 5 7 1 3 1 7 6 5 3 4 6 7 6 10
12 8 7 11 0 4 1 10 8 3 4 9 7 11 10 11 7 10 9 7 2 14 9 7 6 8 5 5 8 4 8 5 4 2 5 4 7 7 5 6 7 9 10 12 10
12 9 5 1 3 3 4 11 9 2 6 8 7 3 8 15 11 8 6 3 10 7 8 10 8 6 6 10 7 10 4 6 3 4 2 2 3 8 2 7 11 12 12 11 11
14 12 6 4 1 5 9 11 1 5 15 6 6 9 7 6 7 7 7 5 7 7 2 11 5 10 13 8 9 3 3 6 4 4 2 8 7 6 5 9 7 4 12 12 12
14 15 9 6 4 3 5 3 3 10 2 7 8 7 11 7 8 10 13 12 12 9 10 4 5 4 6 5 3 5 6 4 6 4 7 3 4 10 9 10 9 8 13 14 12
13 15 9 6 3 1 3 3 11 10 12 3 5 6 10 9 10 8 8 13 12 7 7 10 9 11 4 9 11 7 10 7 6 3 6 3 6 8 6 5 8 6 10 13 12
15 5 4 7 7 3 3 8 16 8 15 4 3 5 5 7 8 9 17 15 13 12 17 9 9 3 7 6 12 5 5 6 5 1 2 4 7 11 3 5 6 7 11 14 13
6 5 8 13 10 4 3 26 9 7 6 23 8 6 10 7 9 16 14 16 13 9 7 7 3 6 7 5 1 9 7 2 3 2 4 4 4 7 8 5 4 6 8 11 9
4 4 6 17 10 6 11 17 22 7 3 15 21 6 7 9 10 8 8 9 21 10 11 7 7 5 6 7 10 3 3 5 5 5 6 3 8 7 5 9 8 9 11 13 15
5 5 10 14 8 6 18 11 8 24 3 3 2 8 8 7 9 11 13 13 12 15 14 8 8 7 9 2 5 7 11 9 6 5 3 4 9 5 6 9 6 6 8 7 9
3 2 5 13 11 13 15 12 14 13 13 3 3 3 5 7 4 5 6 5 9 17 12 9 3 4 6 4 1 5 5 5 5 5 8 6 7 4 4 3 4 7 9 9 9
3 5 3 6 4 15 18 18 10 17 14 1 3 5 1 5 3 4 2 3 2 4 9 13 6 11 16 6 7 5 5 6 7 5 6 7 5 5 3 4 1 5 8 9 9
3 2 2 6 8 11 7 3 21 9 12 3 3 4 3 5 4 4 2 3 4 3 4 7 8 6 5 10 11 14 9 12 10 9 9 9 9 8 5 5 4 8 9 10 10
4 2 3 2 12 15 8 4 18 21 5 17 5 4 2 3 4 4 3 3 2 8 4 2 4 8 7 10 13 11 18 16 18 3 1 6 5 7 5 5 4 8 12 14 15
1 1 3 1 6 10 13 14 4 3 1 6 5 3 3 3 5 6 7 4 3 1 2 1 4 4 5 6 7 19 16 15 10 5 10 9 11 8 6 8 9 7 12 15 15
Wind_Direction
345 339 355 350 355 342 336 333 329 330 330 328 329 335 338 332 315 162 212 219 190 145 125 137 129 131 101 144 145 131 72 215 247 199 249 247 163 277 5 128 89 311 146 141 118
343 348 349 343 340 334 331 332 332 328 327 324 329 332 335 335 332 261 188 208 201 156 136 171 154 133 113 174 157 117 132 223 200 198 236 215 189 174 169 140 79 68 64 88 87
344 343 341 335 333 335 333 334 330 326 324 325 324 329 331 315 341 259 192 202 183 174 156 144 111 117 157 171 195 184 200 209 230 212 186 195 234 174 132 254 210 194 164 129 112
331 332 328 326 334 333 330 330 324 322 324 325 320 327 317 265 246 229 351 262 185 153 136 130 112 144 192 217 194 173 238 186 252 186 146 187 133 196 202 229 218 164 144 137 152
328 329 330 334 335 331 329 325 320 317 313 314 317 323 311 336 246 235 50 92 109 139 177 155 154 139 220 222 157 192 258 188 242 156 172 121 198 192 238 333 110 122 140 154 162
322 325 327 327 325 323 320 315 310 305 300 303 312 321 168 251 248 279 219 142 151 170 160 139 187 192 242 218 170 208 202 56 54 166 177 153 182 140 239 138 130 146 173 167 164
313 316 317 319 320 320 317 310 306 301 298 295 284 198 235 232 214 132 166 175 171 173 178 191 146 164 176 276 228 93 103 36 263 148 247 114 299 235 189 158 160 178 164 164 194
310 311 314 318 320 320 318 313 303 304 298 287 176 183 244 243 253 260 252 271 202 220 192 137 123 228 173 225 39 87 53 93 279 152 257 140 264 265 182 165 189 175 170 175 196
307 308 314 321 323 323 318 309 300 299 294 134 122 186 262 297 223 233 167 200 149 173 114 105 122 186 33 193 37 13 218 208 310 203 134 175 265 277 172 182 184 173 176 181 198
297 304 312 314 319 323 321 306 290 284 141 206 249 301 273 237 246 204 176 144 150 120 101 126 77 165 65 102 208 232 225 227 241 242 185 223 266 256 199 199 193 173 174 186 196
286 290 294 302 313 319 337 343 5 206 224 201 202 237 288 292 277 215 179 115 120 107 155 162 137 202 201 199 182 193 194 246 266 242 176 234 253 273 205 207 187 186 181 189 202
273 276 288 300 309 310 272 269 61 277 297 237 246 251 267 36 316 307 148 130 147 163 112 79 219 187 196 163 171 158 220 263 273 278 160 271 270 263 187 223 203 189 185 187 188
271 279 296 310 313 346 290 74 318 329 256 264 202 214 220 150 220 251 188 143 137 148 165 183 181 161 167 195 173 198 172 232 237 321 239 149 308 302 270 243 177 185 178 166 187
257 243 279 311 313 316 228 320 316 262 293 271 205 250 171 142 237 208 180 149 134 187 167 206 192 170 167 195 164 253 216 228 267 51 268 131 271 286 284 278 228 194 184 181 184
249 236 243 111 270 308 328 311 303 124 287 248 203 235 175 169 157 215 168 85 161 171 139 213 154 174 171 209 161 231 142 195 225 203 108 273 72 263 352 285 258 214 194 184 179
255 231 187 95 50 261 302 304 124 71 244 270 193 175 117 199 190 146 154 127 155 152 239 202 191 163 196 213 174 165 107 49 55 95 53 234 155 279 220 216 260 179 187 184 173
259 235 178 151 215 245 313 349 119 207 225 217 201 160 175 159 193 161 166 177 177 156 198 167 186 192 144 149 88 95 70 340 342 8 222 108 98 234 254 243 230 227 189 173 169
255 241 198 164 174 40 11 79 219 214 202 289 164 144 178 149 209 184 153 183 210 154 157 177 228 169 178 168 181 180 154 157 226 227 260 138 231 251 229 308 282 220 174 156 163
255 241 196 163 140 103 110 199 223 170 194 230 104 133 201 191 157 170 212 203 184 183 200 170 228 136 165 155 145 178 154 198 134 156 63 242 288 311 268 8 19 104 141 168 168
241 229 237 152 139 114 121 227 220 186 145 202 197 166 186 184 172 191 180 208 205 171 138 195 175 207 200 92 19 162 162 112 16 190 228 278 285 241 301 303 173 163 181 174 161
215 232 163 143 142 175 212 227 222 309 330 184 218 192 215 178 180 194 227 219 190 168 172 132 132 269 107 178 168 124 161 58 122 146 182 234 258 218 223 250 231 194 192 182 177
236 214 150 152 188 194 228 213 323 229 275 289 217 197 196 184 184 199 205 198 180 162 170 185 150 191 199 201 171 207 188 168 157 230 209 182 261 242 262 271 208 167 188 179 196
229 191 185 182 197 214 235 258 256 252 244 306 280 216 195 192 196 176 167 220 158 178 159 171 201 144 329 3 331 167 177 147 119 93 189 181 262 175 255 268 202 171 169 168 173
128 190 158 231 242 211 222 233 262 239 279 98 314 309 139 167 218 152 149 69 61 126 158 152 156 187 219 207 159 183 179 183 153 137 184 217 210 262 184 59 286 152 163 166 181
129 234 307 172 202 222 180 272 215 246 218 128 224 249 207 176 100 125 191 9 90 262 107 139 204 180 198 201 190 210 194 179 190 193 172 214 207 228 178 180 208 172 147 158 168
170 177 156 281 213 220 221 207 235 214 248 226 244 190 5 60 53 100 66 78 71 15 90 7 222 173 217 206 194 214 216 193 208 149 102 154 232 206 173 163 222 162 166 182 187
232 236 309 75 226 207 214 213 242 229 299 205 145 241 47 224 261 239 209 259 240 25 360 339 135 100 228 181 124 247 206 192 203 190 168 196 214 155 179 195 214 207 182 193 192